TELSTAR 14R

Last updated on Wed Sep 17 2025 00:02:47 GMT+0000 (Coordinated Universal Time)

1 37602U 11021A 25259.49983831 -.00000299 00000+0 00000+0 0 9990 2 37602 0.0124 218.6041 0000330 342.2029 271.8275 1.00271859 53099
UTC large
Height (km)
Speed (km/s)
/
Latitude / Longitude
Inclination (degrees)
Orbital Period (minutes)
Azimuth
Elevation
Range (km)
Doppler Factor

Next 0 passes for location: London (51.5072 / 0.1276)

Sorry there are no passes over London.